Location: Unspecified
(0.0000°N, 0.0000°E)
Time: 15:11:46
(UTC+00:00)

Explorer 7 - All Passes

Search period start: 03 September 2015 00:00
Search period end: 13 September 2015 00:00
Orbit: 488 x 692 km, 50.3° (Epoch: 01 September)

Date Brightness Start Highest point End Pass type
(mag) Time Alt. Az. Time Alt. Az. Time Alt. Az.
03 Sep - 02:20:19 10° SW 02:24:34 83° SE 02:28:32 10° NE night (unlit)
03 Sep - 14:22:57 10° NW 14:27:23 67° SW 14:32:07 10° SSE daylight
04 Sep - 00:49:45 10° SSE 00:51:12 12° SE 00:52:52 10° ESE night (unlit)
04 Sep - 02:28:00 10° WSW 02:31:59 39° NW 02:35:43 10° NNE night (unlit)
04 Sep - 12:51:18 10° N 12:54:15 18° NE 12:57:29 10° E daylight
04 Sep - 14:30:54 10° WNW 14:34:54 30° SW 14:39:03 10° S daylight
05 Sep - 00:55:14 10° S 00:58:50 25° SE 01:02:19 10° ENE night (unlit)
05 Sep - 02:36:32 10° W 02:39:26 17° NW 02:42:04 10° N night (unlit)
05 Sep - 12:57:39 10° NNW 13:01:41 39° NE 13:06:02 10° ESE daylight
05 Sep - 14:39:49 10° W 14:42:30 15° SW 14:45:02 10° SSW daylight
06 Sep - 01:02:02 10° SSW 01:06:21 59° SE 01:10:23 10° NE night (unlit)
06 Sep - 13:04:46 10° NW 13:09:06 89° NE 13:13:46 10° SE daylight
07 Sep - 01:09:29 10° SW 01:13:47 57° NW 01:17:47 10° NNE night (unlit)
07 Sep - 11:34:05 10° NNE 11:35:57 13° NE 11:38:08 10° E daylight
07 Sep - 13:12:28 10° WNW 13:16:34 40° SW 13:20:55 10° SSE daylight
07 Sep - 23:37:18 10° S 23:40:32 20° SE 23:43:44 10° E night (unlit)
08 Sep - 01:17:35 10° WSW 01:21:11 24° NW 01:24:31 10° N night (unlit)
08 Sep - 11:39:50 10° N 11:43:26 28° NE 11:47:19 10° ESE daylight
08 Sep - 13:20:56 10° W 13:24:08 19° SW 13:27:19 10° S daylight
08 Sep - 23:43:47 10° SSW 23:48:05 43° SE 23:52:07 10° NE night (unlit)
09 Sep - 01:27:18 10° WNW 01:28:40 11° NW 01:29:46 10° NW night (unlit)
09 Sep - 11:46:40 10° NNW 11:50:50 64° NE 11:55:19 10° SE daylight
09 Sep - 23:51:00 10° SW 23:55:31 81° NW 23:59:43 10° NE night (unlit)
10 Sep - 11:54:08 10° NW 11:58:15 54° SW 12:02:40 10° SSE daylight
10 Sep - 22:19:30 10° SSE 22:22:10 16° SE 22:24:55 10° E night (unlit)
10 Sep - 23:58:48 10° WSW 00:02:55 34° NW 00:06:44 10° NNE night (unlit)
11 Sep - 10:22:09 10° N 10:25:09 20° NE 10:28:24 10° ESE daylight
11 Sep - 12:02:16 10° WNW 12:05:46 24° SW 12:09:22 10° S daylight
11 Sep - 22:25:36 10° SSW 22:29:45 32° SE 22:33:42 10° ENE night (unlit)
12 Sep - 00:07:32 10° W 00:10:22 16° NW 00:12:53 10° NNW night (unlit)
12 Sep - 10:28:40 10° NNW 10:32:33 45° NE 10:36:46 10° SE daylight
12 Sep - 12:11:57 10° WSW 12:13:24 11° SW 12:14:36 10° SSW daylight
12 Sep - 22:32:34 10° SSW 22:37:13 74° SE 22:41:32 10° NE night (unlit)
